THOR ABLESTAR DEB, 330

Orbit data source: Space-Track

THOR ABLESTAR DEB, 330 is space debris in LEO originally from a launch on Thu, 29 Jun 1961 UTC launched from the Air Force Eastern Test Range (AFETR). Debris objects in space refer to the collection of defunct objects orbiting the Earth. Examples of debris include non-operational satellites, rocket bodies, and fragments generated from explosions, collisions, or faulty payload assembly.

Loading next visibility...
THOR ABLESTAR DEB details
Identifier
330, 1961-015DG
Orbit
LEO
Last TLE update8 hours ago
Origin
Flag of USUSAF SSD (US)
ManufacturerUnknown
MissionSpacecraft
Bus & MotorUnknown
MassUnknown
Launch date (UTC)
1961-06-29 (64 years ago)
Launch vehicleUnknown
Launch site
Air Force Eastern Test Range (AFETR)
Object type
Payload
Rocket body
Debris
Shape & HBRUnknown
Radar Cross SectionSmall (<0.1 m²)

Expand to show TLE details & history

TLE from 8 hours ago
0 THOR ABLESTAR DEB
1   330U 61015DG  25036.24399653  .00001390  00000-0  89213-3 0  9995
2   330  66.9793  99.7190 0045029 135.3617 225.1110 14.05636093227335
Epoch: 2025-02-05T05:51Z
Definitive object data (Epoch: 2025-02-05T05:51:21.3Z)
Latitude-0.00008°
Longitude-123.7575°
Altitude899.572 km
Speed7.391 km/s
True Right ascension06h 38m 52s
True Declination0° 00' 00"
Sunlit
Object was in full shadow at TLE epoch
Visualization TLE readout
Latitude-38.9296°
Longitude-144.58322°
Altitude920.984 km
Speed7.374 km/s
Apparent Right ascension04h 47m 27s
Apparent Declination-39° 27' 36"
Sunlit
Object is in daylight
Visualization observer readout
Local Sidereal Time16:14:47
Azimuth271.536° WNW
Elevation-83.703°
Doppler factor1
Orbital elements
Apogee altitude905.355 km
Perigee altitude840.055 km
Semi-major axis7,250.842 km
Eccentricity0.0045029
Inclination66.9793°
RAAN99.719°
Arg. of periapsis135.3617°
True anomaly224.74688°
Mean anomaly225.111°
Eccentric anomaly224.9288°
Mean motion3.51528 °/min
BSTAR0.00089213
Orbital period102.41 mins
Loading maneuver chart data...

THOR ABLESTAR DEB Visibility forecast

Observer location: undefined°, undefined

Span
Click to sort rows by Start time (UTC) header in descending order
Start Az.
Max El. time (UTC)
Max El. Az.
Max El.
End time (UTC)
End Az.
10 mins2025-02-05 14:57:20.849Z333.879° NNW2025-02-05 15:02:20.849Z109.189° ESE44.223°2025-02-05 15:07:20.849Z148.703° SSE
5 mins2025-02-06 04:12:20.849Z124.293° SE2025-02-06 04:14:20.849Z100.88° ESE15.422°2025-02-06 04:17:20.849Z68.956° E
10 mins2025-02-06 05:54:20.849Z217.094° SW2025-02-06 05:58:20.849Z268.692° W43.292°2025-02-06 06:04:20.849Z25.056° NE
4 mins2025-02-06 07:43:20.849Z301.708° NW2025-02-06 07:45:20.849Z324.186° NNW13.62°2025-02-06 07:47:20.849Z345.762° N
5 mins2025-02-06 13:08:20.849Z14.997° NNE2025-02-06 13:10:20.849Z38.817° NE16.111°2025-02-06 13:13:20.849Z74.507° E
|